Regional Weather Roundup
Issued by NWS Mobile, AL

Home | Current Version | Previous Version | Text Only | Print | Product List | Glossary On
Versions: 1 2 3 4 5 6 7 8 9 10 11 12 13 14 15 16 17 18 19 20 21 22 23 24 25 26 27
000
ASUS44 KMOB 312110
RWRMOB
REGIONAL WEATHER ROUNDUP
NATIONAL WEATHER SERVICE MOBILE AL
400 PM CDT FRI OCT 31 2014

NOTE: "FAIR" INDICATES FEW OR NO CLOUDS BELOW 12,000 FEET WITH NO
      SIGNIFICANT WEATHER AND/OR OBSTRUCTIONS TO VISIBILITY.

  * THESE STATIONS ARE PART OF THE UNIVERSITY OF SOUTH ALABAMA
    MESONET AND ARE NOT UNDER NWS OR FAA QUALITY CONTROL.

ALZ061>064-312200-
COASTAL ALABAMA

CITY           SKY/WX    TMP DP  RH WIND       PRES   REMARKS
MOBILE REG APT CLOUDY    73  44  35 W12G25    29.95R
BROOKLEY FIELD MOSUNNY   76  43  30 W9G24     29.94R
USA CAMPUS*      N/A     68  46  45 CALM      29.94R
DOG RIVER*     NOT AVBL


CITY           SKY/WX    TMP DP  RH WIND       PRES   REMARKS
MOUNT VERNON*  NOT AVBL
SARALAND*      NOT AVBL
BAY MINETTE*   NOT AVBL
LOXLEY*          N/A     73  43  33 NW18      29.93R
ROBERTSDALE*     N/A     75  43  31 W3        29.92R
FAIRHOPE*        N/A     73  46  38 NW6       29.92R
ELBERTA*         N/A     72  48  43 W5        29.92S
FOLEY*           N/A     68  45  42 W3        29.88R
GRAND BAY*       N/A     75  43  31 NW7       29.92R
DAUPHIN ISLND* NOT AVBL
BON SCOUR NWR* NOT AVBL
GULF SHORES    SUNNY     72  50  46 W13G18    29.93R

$$

ALZ051>060-312200-
INTERIOR SOUTHWEST AND SOUTH CENTRAL ALABAMA

CITY           SKY/WX    TMP DP  RH WIND       PRES   REMARKS
GREENVILLE     MOSUNNY   71  44  37 W12G20    29.90S
EVERGREEN      MOSUNNY   70  45  40 VRB6      29.92R
CASTLEBERRY*   NOT AVBL
ATMORE*          N/A     72  45  37 NW9       29.93R
DIXIE*           N/A     73  46  38 CALM      29.88R
ANDALUSIA/OPP  MOSUNNY   75  44  33 NW12G22   29.90R
ANDALUSIA*       N/A     70  45  40 NW16      29.90R
FLORALA APT    PTSUNNY   70  45  40 CALM      29.92R
FLORALA*         N/A     68  45  42 W3        29.88R

$$

FLZ001>006-312200-
WESTERN FLORIDA PANHANDLE

CITY           SKY/WX    TMP DP  RH WIND       PRES   REMARKS
PENSACOLA      MOSUNNY   73  44  35 NW13      29.91S
NAS PENSACOLA  PTSUNNY   73  45  36 W8G17     29.91R
MILTON         MOSUNNY   73  45  36 W14       29.91R
WHTNG S FIELD  MOSUNNY   75  46  35 NW9G17    29.91R


CITY           SKY/WX    TMP DP  RH WIND       PRES   REMARKS
WALNUT HILL*   NOT AVBL
JAY*             N/A     70  45  40 W10       29.92R
DUKE FIELD     MOSUNNY   73  44  36 W10       29.90R
CRESTVIEW      MOSUNNY   72  46  39 NW8       29.91S
VALPARAISO     MOSUNNY   76  44  32 N12G20    29.89F
DESTIN         PTSUNNY   75  49  39 NW8       29.90S

$$

MSZ076-079-312200-
INTERIOR SOUTHEAST MISSISSIPPI

CITY           SKY/WX    TMP DP  RH WIND       PRES   REMARKS
LEAKESVILLE*     N/A     68  39  34 NW7       29.97R
AGRICOLA*      NOT AVBL

$$

MARINE OBSERVATIONS

STATION/POSITION TIME  TEMP    WIND        PRES    WAVE
                       AIR SEA DIR/SP/G            HT/PER
                 (UTC) (F)     (DEG/KT/KT) (MB)    (FT/S)
PASCAGOULA       2100   74     340/ 15/ 19 1013.5R
PETIT BOIS ISLND 2100   74     320/ 17/ 20 1013.9R
GRAND BAY        1900   72     260/  9     1015.0S
KATRINA CUT      2000   70     270/ 16     1013.9S
CEDAR POINT      2000   69     260/ 16     1013.5R
E DAUPHIN ISLAND 2000   71     240/ 11/ 17 1013.5F
MIDDLE BAY LIGHT 2000   74     310/ 20       N/A
USCG MOBILE BAY  2100   73 74  340/  7/ 16 1012.3R
STATE DOCKS      2100   76 73              1013.2S
MEAHER PARK      2000   73     310/ 12     1012.9F
WEEKS BAY        1900   72                   N/A
12 S ORANGE BCH  2100   71 77  270/ 12/ 14 1013.1F   1/ 3
PENSACOLA BAY    2100   74 73  280/ 10/ 16 1012.9S
64 S DAUPHIN ISL 2044   71 78  300/ 16/ 21 1014.9F   2/ 4
67 S FORT MORGAN 2000   74                 1014.2F

$$

SELECTED LOCATIONS ACROSS THE REGION

CITY           SKY/WX    TMP DP  RH WIND       PRES   REMARKS
NEW ORLEANS    MOSUNNY   74  44  34 NW21G26   30.01R
GULFPORT       MOSUNNY   74  44  34 NW21      29.96R
PASCAGOULA AP  SUNNY     74  43  32 N15G21    29.94R
PASCAGOULA*      N/A     75  39  27 NE9       29.93R
HATTIESBURG    MOSUNNY   72  46  39 NW14G21   30.00R
LAUREL         MOSUNNY   72  46  40 N16G24    30.02R
MERIDIAN       PTSUNNY   69  46  43 N16       29.99R
JACKSON        MOSUNNY   64  45  49 N16G26    30.07R
MONTGOMERY     PTSUNNY   70  44  39 NW12G22   29.91R
TROY           PTSUNNY   71  44  37 W8        29.89S
KINSTON*       NOT AVBL
GENEVA*          N/A     70  43  37 N8        29.91R
ASHFORD*         N/A     70  45  40 NW16      29.90R
DOTHAN         MOSUNNY   70  42  36 NW12      29.91S
PANAMA CITY    MOSUNNY   75  40  28 W8        29.88S

$$




USA.gov is the U.S. government's official web portal to all federal, state and local government web resources and services.